Simultaneous Nadir Overpasses (SNOs) Predictions

Prediction of SNOs between AQUA and NOAA-19 Satellite Orbit:

Table of predicted SNOs for the next 14.0 days since TLE Epoch: 8/2/2025
Index Date (AQUA) Time (AQUA) Lat,Lon (AQUA) SZA (AQUA ) Date (NOAA-19) Time (NOAA-19) Lat,Lon (NOAA-19) SZA (NOAA-19 ) Distance(km) Time Diff (sec)
1 08/03/2025 20:47:11 75.78,-124.98 58.51 08/03/2025 20:46:38 75.80,-125.00 58.52 1.97 33
2 08/03/2025 21:36:29 -75.83, 42.56 121.44 08/03/2025 21:37:31 -75.84, 42.42 121.43 3.97 62
3 08/05/2025 22:54:19 -75.78, 23.29 120.93 08/05/2025 22:53:45 -75.81, 23.29 120.91 2.50 34
4 08/05/2025 23:43:39 75.85,-169.24 59.15 08/05/2025 23:44:46 75.88,-169.22 59.18 3.16 67
5 08/08/2025 01:01:28 75.78, 171.56 59.66 08/08/2025 01:01:01 75.80, 171.49 59.68 2.72 27
6 08/08/2025 01:50:47 -75.87, -21.05 120.25 08/08/2025 01:51:53 -75.88, -20.96 120.23 2.39 66
7 08/10/2025 03:08:35 -75.78, -40.16 119.74 08/10/2025 03:08:08 -75.79, -40.26 119.73 3.11 27
8 08/10/2025 03:57:56 75.90, 127.15 60.39 08/10/2025 03:59:08 75.91, 127.39 60.42 6.63 72
9 08/12/2025 05:15:44 75.83, 107.96 60.94 08/12/2025 05:15:23 75.82, 108.06 60.93 3.01 21
10 08/12/2025 06:05:02 -75.87, -84.49 119.02 08/12/2025 06:06:15 -75.91, -84.37 118.97 4.93 73
11 08/14/2025 07:22:50 -75.83,-103.75 118.43 08/14/2025 07:22:30 -75.82,-103.69 118.43 1.95 20



Historial Predications of SNOs between AQUA and NOAA-19
